WB2COY Weather Reports


time (UTC)temp
F
wind
direction
speed
knots
gust
knots
rain 1hr
in
rain 24hr
in
rain mn
in
humidity
%
barometer
mb
20260502233016 53 0 0.9 2.6 0.00 0.22 0.22 35 1011.0
20260502230016 54 23 0.9 3.5 0.00 0.22 0.22 35 1010.9
20260502223016 55 0 0.9 3.5 0.00 0.22 0.22 34 1010.6
20260502220016 56 0.0 2.6 0.00 0.22 0.22 35 1010.2
20260502213056 56 23 0.9 3.5 0.00 0.22 0.22 34 1010.0
20260502210017 57 68 0.9 2.6 0.00 0.22 0.22 35 1009.9
20260502203016 57 45 0.9 2.6 0.00 0.22 0.22 34 1010.0
20260502200037 58 23 0.9 2.6 0.00 0.22 0.22 39 1010.3
20260502193016 58 0.0 1.7 0.00 0.22 0.22 44 1010.6
20260502190015 60 68 0.9 3.5 0.00 0.22 0.22 40 1010.9
20260502183037 57 68 0.9 3.5 0.00 0.22 0.22 51 1011.2
20260502163016 53 68 0.9 2.6 0.00 0.22 0.22 63 1012.2
20260502123015 49 0.0 0.9 0.00 0.22 0.22 80 1012.1
20260502113017 48 0.0 0.0 0.00 0.22 0.22 81 1012.2
20260502110058 48 0.0 0.0 0.00 0.22 0.22 81 1011.9
20260502103018 47 0.0 0.9 0.00 0.22 0.22 80 1011.8
20260502070016 48 0.0 0.9 0.07 0.11 0.11 72 1012.2
20260502063018 48 0.0 0.9 0.01 0.05 0.05 70 1012.3
20260502060016 48 0.0 0.9 0.03 0.04 0.04 69 1011.9
20260502053017 48 0.0 1.7 0.04 0.04 0.04 68 1011.9
20260502050016 50 0.0 1.7 0.01 0.01 0.01 65 1011.9
20260502043016 51 0.0 0.9 0.00 0.00 0.00 60 1012.0
20260502040016 52 0.0 0.0 0.00 0.00 0.00 55 1011.8
20260502033017 52 0.0 0.0 0.00 0.00 0.00 55 1011.5
20260502030016 53 0.0 0.0 0.00 0.00 0.00 52 1011.7
20260502023018 53 0.0 0.0 0.00 0.00 0.00 51 1011.5
20260502020016 53 0.0 0.0 0.00 0.00 0.00 47 1011.5
20260502013016 54 0.0 0.0 0.00 0.00 0.00 47 1011.5
20260502010016 54 0.0 0.0 0.00 0.00 0.00 45 1011.5
20260502003039 56 0.0 1.7 0.00 0.00 0.00 40 1011.1
20260502000016 58 0.0 2.6 0.00 0.00 0.00 36 1010.8